Location: Juiz de Fora
(21.7500°S, 43.3330°W)
Time: 07:43:16
(UTC-03:00)

Hubble Space Telescope - Pass Details

Date: 27 June 2024
Orbit: 510 x 513 km, 28.5° (Epoch: 16 July)

Event Time Altitude Azimuth Distance (km) Brightness Sun altitude
Rises 18:13:03 0° 250° (WSW) 2,622 5.1 -12.0°
Reaches altitude 10° 18:15:28 10° 239° (WSW) 1,737 3.9 -12.5°
Maximum altitude 18:19:04 31° 175° (S) 911 1.7 -13.3°
Enters shadow 18:20:55 21° 129° (SE) 1,183 1.9 -13.7°
